KB1WCR Weather Reports


Display with metric or nautical units.
time (UTC)temp
F
wind
direction
speed
MPH
gust
MPH
rain 1hr
in
rain 24hr
in
rain mn
in
humidity
%
barometer
mb
20260504000307 46 282 2.0 3.0 0.00 0.00 0.00 56 1006.4
20260503235804 47 311 3.0 3.0 0.00 0.00 0.00 55 1006.4
20260503235304 47 260 2.0 2.0 0.00 0.00 0.00 56 1006.5
20260503234759 47 292 2.0 3.0 0.00 0.00 0.00 55 1006.3
20260503234257 48 235 3.0 3.0 0.00 0.00 0.00 55 1006.2
20260503233754 48 284 4.0 6.0 0.00 0.00 0.00 53 1006.0
20260503233249 48 264 1.0 2.0 0.00 0.00 0.00 56 1005.9
20260503232747 48 276 1.0 1.0 0.00 0.00 0.00 55 1005.8
20260503232244 48 292 1.0 2.0 0.00 0.00 0.00 55 1005.7
20260503231742 49 299 1.0 1.0 0.00 0.00 0.00 54 1005.6
20260503231239 49 288 2.0 3.0 0.00 0.00 0.00 53 1005.6
20260503230734 49 316 3.0 3.0 0.00 0.00 0.00 53 1005.5
20260503230232 50 268 1.0 1.0 0.00 0.00 0.00 53 1005.5
20260503225724 50 263 4.0 6.0 0.00 0.00 0.00 51 1005.3
20260503225224 50 314 3.0 3.0 0.00 0.00 0.00 52 1005.4
20260503224721 50 258 2.0 4.0 0.00 0.00 0.00 51 1005.1
20260503224219 50 245 3.0 6.0 0.00 0.00 0.00 50 1005.3
20260503223716 51 229 1.0 2.0 0.00 0.00 0.00 51 1005.0
20260503223214 51 287 6.0 9.0 0.00 0.00 0.00 49 1005.0
20260503222710 50 297 3.0 4.0 0.00 0.00 0.00 50 1004.9
20260503222208 50 302 2.0 3.0 0.00 0.00 0.00 50 1004.8
20260503221706 50 192 9.0 11.0 0.00 0.00 0.00 51 1004.8
20260503221203 50 269 2.0 2.0 0.00 0.00 0.00 51 1004.7
20260503220700 50 354 4.0 6.0 0.00 0.00 0.00 51 1004.7
20260503220156 50 201 4.0 7.0 0.00 0.00 0.00 51 1004.7
20260503215653 50 256 1.0 2.0 0.00 0.00 0.00 53 1004.7
20260503215149 50 231 1.0 1.0 0.00 0.00 0.00 55 1004.5
20260503214649 50 276 2.0 2.0 0.00 0.00 0.00 54 1004.6
20260503214144 50 287 5.0 8.0 0.00 0.00 0.00 52 1004.6
20260503213638 50 273 4.0 7.0 0.00 0.00 0.00 54 1004.5
20260503213134 50 78 2.0 2.0 0.00 0.00 0.00 55 1004.6
20260503212631 51 26 3.0 4.0 0.00 0.00 0.00 55 1004.6
20260503212129 51 283 5.0 8.0 0.00 0.00 0.00 54 1004.4
20260503211627 51 288 3.0 4.0 0.00 0.00 0.00 54 1004.3
20260503211121 51 288 1.0 2.0 0.00 0.00 0.00 55 1004.2
20260503210618 51 0 2.0 4.0 0.00 0.00 0.00 55 1004.1
20260503210115 51 33 2.0 2.0 0.00 0.00 0.00 54 1004.2
20260503205611 51 289 0.0 1.0 0.00 0.00 0.00 55 1004.2
20260503205107 51 38 7.0 8.0 0.00 0.00 0.00 52 1004.1
20260503204604 51 350 5.0 9.0 0.00 0.00 0.00 53 1004.2
20260503204101 51 45 2.0 3.0 0.00 0.00 0.00 54 1004.2
20260503203558 51 338 3.0 4.0 0.00 0.00 0.00 53 1004.2
20260503203056 52 334 4.0 6.0 0.00 0.00 0.00 53 1004.1
20260503202553 52 170 4.0 8.0 0.00 0.00 0.00 53 1004.3
20260503202051 52 38 6.0 14.0 0.00 0.00 0.00 52 1004.1
20260503201549 52 299 3.0 8.0 0.00 0.00 0.00 53 1004.1
20260503201046 52 267 1.0 2.0 0.00 0.00 0.00 54 1004.2
20260503200542 51 339 2.0 3.0 0.00 0.00 0.00 54 1004.1
20260503200038 51 355 1.0 3.0 0.00 0.00 0.00 52 1004.3
20260503195536 52 309 4.0 6.0 0.00 0.00 0.00 53 1004.3
20260503195027 52 256 4.0 4.0 0.00 0.00 0.00 54 1004.3
20260503194525 53 29 4.0 6.0 0.00 0.00 0.00 53 1004.2
20260503194024 54 335 3.0 4.0 0.00 0.00 0.00 54 1004.1
20260503193521 53 287 5.0 6.0 0.00 0.00 0.00 56 1004.3
20260503193017 53 312 4.0 6.0 0.00 0.00 0.00 54 1004.4
20260503192513 53 298 3.0 6.0 0.00 0.00 0.00 56 1004.4
20260503192009 52 292 1.0 1.0 0.00 0.00 0.00 57 1004.4
20260503191506 52 319 4.0 9.0 0.00 0.00 0.00 57 1004.4
20260503191003 52 227 4.0 6.0 0.00 0.00 0.00 57 1004.5
20260503190459 52 269 2.0 3.0 0.00 0.00 0.00 58 1004.6
20260503185956 52 234 4.0 7.0 0.00 0.00 0.00 57 1004.4
20260503185453 51 289 2.0 3.0 0.00 0.00 0.00 60 1004.4
20260503184952 51 231 1.0 1.0 0.00 0.00 0.00 60 1004.5
20260503184449 51 300 3.0 6.0 0.00 0.00 0.00 59 1004.5
20260503183945 51 285 2.0 3.0 0.00 0.00 0.00 58 1004.4
20260503183442 51 27 3.0 4.0 0.00 0.00 0.00 57 1004.4
20260503182939 52 282 6.0 8.0 0.00 0.00 0.00 58 1004.4
20260503182438 52 264 2.0 3.0 0.00 0.00 0.00 57 1004.3
20260503181935 51 318 3.0 4.0 0.00 0.00 0.00 60 1004.3
20260503181432 51 339 6.0 10.0 0.00 0.00 0.00 60 1004.3
20260503180928 51 57 4.0 9.0 0.00 0.00 0.00 62 1004.3
20260503180427 51 263 2.0 2.0 0.00 0.00 0.00 61 1004.4
20260503175923 51 325 6.0 9.0 0.00 0.00 0.00 63 1004.4
20260503175421 51 311 2.0 3.0 0.00 0.00 0.00 64 1004.4
20260503174916 50 232 2.0 3.0 0.00 0.00 0.00 66 1004.4
20260503174415 50 222 2.0 3.0 0.00 0.00 0.00 67 1004.4
20260503173909 50 288 3.0 4.0 0.00 0.00 0.00 67 1004.6
20260503173405 49 14 2.0 2.0 0.00 0.00 0.00 68 1004.5
20260503172902 48 8 1.0 2.0 0.00 0.00 0.00 69 1004.5
20260503172400 48 254 3.0 3.0 0.00 0.00 0.00 71 1004.4
20260503171856 48 344 4.0 6.0 0.00 0.00 0.00 70 1004.6
20260503171353 48 341 0.0 1.0 0.00 0.00 0.00 70 1004.7
20260503170850 48 306 4.0 7.0 0.00 0.00 0.00 70 1004.7
20260503170346 48 285 0.0 1.0 0.00 0.00 0.00 71 1004.7
20260503150739 46 269 3.0 4.0 0.00 0.00 0.00 84 1004.9
20260503150235 46 37 4.0 4.0 0.00 0.00 0.00 84 1005.1
20260503140159 43 317 3.0 4.0 0.00 0.00 0.00 92 1005.7
20260503131129 42 310 3.0 4.0 0.00 0.00 0.00 95 1006.1
20260503130626 42 292 1.0 2.0 0.00 0.00 0.00 96 1006.4
20260503130124 43 313 2.0 3.0 0.00 0.00 0.00 96 1006.2
20260503110511 42 31 1.0 1.0 0.00 0.00 0.00 99 1006.9
20260503090356 41 296 0.0 0.0 0.00 0.00 0.00 99 1007.3
20260503081323 41 286 0.0 0.0 0.00 0.00 0.00 99 1008.1
20260503080820 41 321 0.0 0.0 0.00 0.00 0.00 99 1008.2
20260503080317 41 328 0.0 0.0 0.00 0.00 0.00 99 1008.0
20260503072753 42 284 0.0 0.0 0.00 0.00 0.00 99 1008.2
20260503072251 42 303 0.0 0.0 0.00 0.00 0.00 99 1008.0
20260503071746 42 290 1.0 1.0 0.00 0.00 0.00 99 1008.0
20260503071244 42 322 0.0 1.0 0.00 0.00 0.00 99 1008.1
20260503070740 42 304 1.0 2.0 0.00 0.00 0.00 99 1008.2
20260503070239 42 297 1.0 1.0 0.00 0.00 0.00 99 1008.1
20260503060157 43 288 0.0 0.0 0.00 0.00 0.00 99 1009.0
20260503054644 43 306 0.0 0.0 0.00 0.00 0.00 99 1009.1
20260503054141 43 290 0.0 0.0 0.00 0.00 0.00 99 1009.3
20260503053639 43 354 1.0 1.0 0.00 0.00 0.00 99 1009.4
20260503053138 43 316 1.0 1.0 0.00 0.00 0.00 99 1009.6
20260503052634 43 284 0.0 0.0 0.00 0.00 0.00 99 1009.6
20260503052130 43 291 0.0 0.0 0.00 0.00 0.00 99 1009.4
20260503051625 43 294 0.0 0.0 0.00 0.00 0.00 99 1009.8
20260503051124 43 281 0.0 0.0 0.00 0.00 0.00 99 1010.0
20260503050620 43 274 0.0 0.0 0.00 0.00 0.00 99 1010.1
20260503050117 43 281 0.0 0.0 0.00 0.00 0.00 99 1009.7
20260503045614 43 2 1.0 1.0 0.00 0.00 0.00 99 1009.9
20260503045111 43 297 0.0 0.0 0.00 0.00 0.00 99 1010.2
20260503044608 43 317 0.0 0.0 0.00 0.00 0.00 99 1009.9
20260503044106 43 299 0.0 0.0 0.00 0.00 0.00 99 1010.1
20260503043601 43 292 0.0 0.0 0.00 0.00 0.00 99 1010.2
20260503043058 43 293 0.0 0.0 0.00 0.00 0.00 99 1010.1
20260503042555 43 261 0.0 0.0 0.00 0.00 0.00 99 1010.1
20260503042051 43 323 0.0 0.0 0.00 0.00 0.00 99 1010.0
20260503041548 43 296 0.0 0.0 0.00 0.00 0.00 99 1010.0
20260503041046 43 341 1.0 1.0 0.00 0.00 0.00 99 1010.1
20260503040543 43 25 1.0 1.0 0.00 0.00 0.00 99 1010.2
20260503040040 43 292 0.0 1.0 0.00 0.00 0.00 99 1010.1
20260503035537 43 287 0.0 0.0 0.00 0.36 0.36 99 1010.2
20260503035035 43 292 0.0 0.0 0.00 0.36 0.36 99 1010.3
20260503034532 43 27 2.0 2.0 0.00 0.36 0.36 99 1010.3
20260503034029 43 273 0.0 0.0 0.00 0.36 0.36 99 1010.3
20260503033526 43 274 0.0 0.0 0.00 0.36 0.36 99 1010.2
20260503033024 43 3 1.0 1.0 0.00 0.36 0.36 99 1010.4
20260503032522 43 334 0.0 0.0 0.00 0.36 0.36 99 1010.4
20260503032020 43 325 0.0 0.0 0.00 0.36 0.36 99 1010.4
20260503031517 43 321 0.0 0.0 0.00 0.36 0.36 99 1010.4
20260503031014 43 289 0.0 0.0 0.00 0.36 0.36 99 1010.6
20260503030510 43 273 0.0 0.0 0.00 0.36 0.36 99 1010.6
20260503030008 43 292 0.0 0.0 0.00 0.36 0.36 99 1010.5
20260503025504 43 292 0.0 0.0 0.00 0.36 0.36 99 1010.6
20260503025002 43 294 0.0 1.0 0.00 0.36 0.36 99 1010.6
20260503024458 44 325 0.0 0.0 0.00 0.36 0.36 99 1010.8
20260503023955 43 283 0.0 0.0 0.07 0.36 0.36 99 1011.1
20260503023452 43 317 0.0 0.0 0.07 0.36 0.36 99 1011.0
20260503022949 43 319 0.0 0.0 0.05 0.35 0.35 99 1011.0
20260503022444 44 321 0.0 1.0 0.05 0.35 0.35 99 1010.8
20260503021940 44 322 1.0 1.0 0.00 0.34 0.34 99 1010.9
20260503021436 44 276 0.0 0.0 0.00 0.34 0.34 99 1010.8
20260503020934 44 271 0.0 0.0 0.00 0.34 0.34 99 1010.8
20260503020432 44 332 1.0 1.0 0.00 0.34 0.34 99 1010.9
20260503015928 44 306 0.0 0.0 0.00 0.34 0.34 99 1010.9
20260503015425 44 300 0.0 0.0 0.00 0.34 0.34 99 1010.9
20260503014921 44 21 2.0 2.0 0.00 0.34 0.34 99 1011.2
20260503014418 44 35 1.0 1.0 0.07 0.34 0.34 99 1011.3
20260503013916 44 356 0.0 1.0 0.07 0.34 0.34 99 1011.3
20260503013413 44 322 1.0 1.0 0.00 0.33 0.33 99 1011.4
20260503012910 44 334 2.0 3.0 0.00 0.33 0.33 99 1011.4
20260503012408 44 338 1.0 1.0 0.00 0.33 0.33 99 1011.3
20260503011904 44 34 2.0 3.0 0.00 0.33 0.33 99 1011.5
20260503011401 44 324 1.0 1.0 0.00 0.33 0.33 99 1011.4
20260503010858 44 332 0.0 1.0 0.05 0.33 0.33 99 1011.4
20260503010354 45 299 0.0 0.0 0.05 0.33 0.33 99 1011.4
20260503005851 45 340 1.0 1.0 0.00 0.32 0.32 99 1011.7
20260503005349 45 306 0.0 0.0 0.00 0.32 0.32 99 1011.4
20260503004845 45 354 1.0 1.0 0.00 0.32 0.32 99 1011.4
20260503004342 45 46 0.0 1.0 0.07 0.32 0.32 99 1011.3
20260503003840 45 326 0.0 1.0 0.07 0.32 0.32 99 1011.5
20260503003337 45 316 1.0 1.0 0.05 0.31 0.31 99 1011.3
20260503002833 45 4 0.0 0.0 0.05 0.31 0.31 99 1011.5
20260503002331 45 346 1.0 1.0 0.00 0.30 0.30 99 1011.5
20260503001827 45 296 0.0 0.0 0.00 0.30 0.30 99 1011.4
20260503001323 45 286 0.0 0.0 0.00 0.30 0.30 99 1011.1
20260503000821 45 276 0.0 0.0 0.00 0.30 0.30 99 1011.0